Flag for Canada Weather past 2 weeks in Regina, Saskatchewan, Canada

Now
57 °F

Clear.


Feels Like: 56 °F
Forecast: 54 / 78 °F
Wind: 6 mph from Southeast

Location: Regina Weather Station

Current Time: Jul 29, 2014 at 5:08:01 AM

Latest Report: Jul 29, 2014 at 4:00 AM


Visibility: 15 mi

Pressure: 30.22 "Hg

Humidity: 100%

Dew point: 57 °F

Location of ReginaLocation

Historic Weather in Regina — Graph

°F

Regina temperature yesterday

Maximum temperature yesterday: 79 °F (at 4:00 PM)
Minimum temperature yesterday: 54 °F (at 5:00 AM)
Average temperature yesterday: 66 °F

Past Weeks' High & Low Weather Summary

 TemperatureHumidityPressure
High84 °F (Jul 19, 4:00 PM)100% (Jul 14, 4:00 AM)30.42 "Hg (Jul 14, 4:00 AM)
Low45 °F (Jul 14, 4:00 AM)36% (Jul 15, 3:00 PM)29.52 "Hg (Jul 18, 4:00 AM)
Average65 °F73%29.97 "Hg
* Reported Jul 14 4:00 AM — Jul 29 4:00 AM, Regina, Weather by CustomWeather, © 2014

Note: Actual official high and low records may vary slightly from our data, if they occured in-between our weather recording intervals... More about our weather records

Advertising

Regina weather history for previous 24 hours

 ConditionsComfort  
Time TempWeatherWind HumidityBarometerVisibility
4:00 AM
Jul 29
57 °FClear.6 mph100%30.22 "Hg15 mi
3:00 AM59 °FPassing clouds.5 mph94%30.22 "Hg15 mi
2:00 AM61 °FClear.2 mph94%30.23 "Hg15 mi
1:00 AM61 °FClear.2 mph94%30.23 "Hg15 mi
12:00 AM63 °FClear.2 mph94%30.23 "Hg15 mi
11:00 PM
Jul 28
64 °FClear.7 mph88%30.23 "Hg15 mi
10:00 PM64 °FPassing clouds.6 mph83%30.24 "Hg15 mi
9:00 PM70 °FPassing clouds.6 mph69%30.23 "Hg15 mi
8:00 PM73 °FPassing clouds.5 mph61%30.22 "Hg15 mi
7:00 PM75 °FScattered clouds.6 mph57%30.23 "Hg15 mi
6:00 PM77 °FScattered clouds.6 mph51%30.24 "Hg15 mi
5:00 PM77 °FScattered clouds.2 mph51%30.24 "Hg15 mi
4:00 PM79 °FPartly sunny.7 mph51%30.25 "Hg15 mi
3:00 PM77 °FBroken clouds.6 mph51%30.26 "Hg15 mi
2:00 PM75 °FPartly sunny.No wind54%30.28 "Hg15 mi
1:00 PM75 °FScattered clouds.No wind54%30.28 "Hg15 mi
12:00 PM75 °FPassing clouds.6 mph57%30.29 "Hg15 mi
11:00 AM72 °FSunny.5 mph65%30.30 "Hg15 mi
10:00 AM70 °FPassing clouds.6 mph64%30.31 "Hg15 mi
9:00 AM64 °FSunny.8 mph78%30.32 "Hg15 mi
8:00 AM61 °FPassing clouds.8 mph83%30.33 "Hg15 mi
7:00 AM57 °FScattered clouds.6 mph88%30.33 "Hg15 mi
6:00 AM54 °FScattered clouds.8 mph100%30.34 "Hg15 mi
5:00 AM54 °FPassing clouds.7 mph94%30.32 "Hg15 mi
Weather by CustomWeather, © 2014

See weather overviewHow to use our weather pages